Location: Goodfare
(55.2420°N, 119.7689°W)
Time: 04:53:28
(UTC+00:00)

ISS - Pass Details

Date: 08 December 2021
Orbit: 413 x 422 km, 51.6° (Epoch: 29 January)

Event Time Altitude Azimuth Distance (km) Brightness Sun altitude
Rises 01:21:41 0° 273° (W) 2,388 1.4 -14.5°
Reaches altitude 10° 01:24:45 10° 243° (WSW) 1,515 0.4 -14.9°
Maximum altitude 01:26:16 13° 217° (SW) 1,366 -0.4 -15.1°
Drops below altitude 10° 01:27:47 10° 190° (S) 1,509 -0.6 -15.3°
Enters shadow 01:33:02 -6° 150° (SSE) 3,167 0.6 -16.0°
